Find Starlink 1212

NORAD ID: 45223 Int'l Des: 2020-012 Owner: SPXS Country: US Constellation: starlink operational
LEOCIRCULAR

リアルタイム位置

3D地球を読み込み中...

Starlink 1212について

説明を読み込み中...

次回通過

Passes for default location (London). Set your location on the main map for personalized predictions.

高度履歴

Loading altitude history...

軌道要素

1 45223U 20012AX 26107.26118725 .00054490 00000-0 66810-3 0 9995
2 45223 53.0437 163.3283 0005992 337.6368 22.4382 15.59808828341640
Epoch: Apr 17, 2026 • Age: 9 hours

現在のステータス

高度 401.9 km
速度 7.67 km/s
衛星直下点 -38.61°S, 51.66°W
打ち上げ日 Feb 17, 2020
運用期間 6.1 years
タイプ internet

技術仕様

分類 Payload
質量 260.00 kg
乾燥質量 248.00 kg
総質量 260.00 kg
長さ 0.20 m
直径 2.80 m
スパン 9.00 m
形状 Box + pan
製造者 SPXS
バスタイプ Starlink
フェーズステータス In Orbit
所有者/国 SPXS/US

Most Searched